Voltar ao catálogo

SHUTIANYUXING-03

AtivoCiênciaSSO
NORAD 67749·PAYLOAD·🇨🇳 China
Este nome de satélite ainda não foi confirmado por fontes oficiais.

Lançado Feb 12, 2026 de South China Sea Launch Area

Loading…

Próximas Passagens (próximas 24 horas)

TLE

AtualizadoSource: Space-Track

Época: Sep 14, 2026, 19:06 UTC

1 67749U 26027D   26257.79647343  .00006996  00000-0  31818-3 0  9999
2 67749  97.5176  25.7398 0008343 271.3615  88.6664 15.21017343 32535

Acompanhe SHUTIANYUXING-03 em tempo real com AllMySat

Download on the App Store